SCP
0 0 0 0 0 0 0 0 0 0 -0 0 0 0 0 0 0 0 0 0 0 0 0 0 0 0 0 0 0 0 0 0 0 0 0 0 0 0 0 0 0 0 0 0
0 0 0 0 0 0 0 0 0 -0 0 0 0 0 0 0 0 0 0 0 0 0 0 0 0 0 0 0 0 0 0 0 0 0 0 0 0 0 0 0 0 0 0 0
0 0 0 0 0 0 0 0 0 0 0 0 0 0 0 0 0 0 0 0 0 0 0 0 0 0 0 0 0 0 0 0 0 0 0 0 0 0 0 0 0 0 0 0
0 0 0 0 0 0 0 0 0 0 0 0 0 0 0 0 0 0 0 0 0 0 0 0 0 0 0 0 0 0 0 0 0 0 0 0 0 0 0 0 0 0 0 0
0 0 0 0 0 0 0 0 0 0 0 0 0 0 0 0 0 0 0 0 0 0 0 0 0 0 0 0 0 0 0 0 0 0 0 0 0 0 0 0 0 0 0 0
0 0 0 0 0 0 0 0 0 0 0 0 0 0 0 0 0 0 0 0 0 0 0 0 0 0 0 0 0 0 0 0 0 0 0 0 0 0 0 0 0 0 0 0
0 0 0 0 0 0 0 0 0 0 0 0 0 0 0 0 0 0 0 0 0 0 0 0 0 0 0 0 0 0 0 0 0 0 0 0 0 0 0 0 0 0 0 0
0 0 0 -0 -0 0 0 0 0 0 0 0 0 0 0 0 0 0 0 0 0 0 0 0 0 0 0 0 0 0 0 0 0 0 0 0 0 0 0 0 0 0 0 0
0 0 0 -0 -0 -0 0 0 0 0 0 0 0 0 0 0 0 0 0 0 0 0 0 0 0 0 0 0 0 0 0 0 0 0 0 0 0 0 0 0 0 0 0 0
0 0 0 -0 -0 -0 -0 0 0 0 0 0 0 0 0 0 0 0 0 0 0 0 0 0 0 0 0 0 0 0 0 0 0 0 0 0 0 0 0 0 0 0 0 0
0 0 0 -0 -0 -0 -0 0 0 -0 0 0 0 0 0 0 0 0 0 0 0 0 0 0 0 0 0 0 0 0 0 0 0 0 0 0 0 0 0 0 0 0 0 0
0 0 0 0 -0 -0 0 0 0 -0 -0 0 0 0 0 0 0 0 0 0 0 0 0 0 0 0 0 0 0 0 0 0 0 0 0 0 0 0 0 0 0 0 0 0
0 0 0 0 0 0 0 0 0 0 0 0 0 0 0 0 0 0 0 0 0 0 0 0 0 0 0 0 0 0 0 0 0 0 0 0 0 0 0 0 0 0 0 0
0 0 0 0 0 0 0 0 0 0 0 0 0 0 0 0 0 0 0 0 0 0 0 0 0 0 0 0 0 0 0 0 0 0 0 0 0 0 0 0 0 0 0 0
0 0 0 0 0 0 0 0 0 0 0 0 0 0 0 0 0 0 0 0 0 0 0 0 0 0 0 0 0 0 0 0 0 0 0 0 0 0 0 0 0 0 0 0
0 0 0 0 0 0 0 0 0 0 0 0 0 0 0 0 0 0 0 0 0 0 0 0 0 0 0 0 0 0 0 0 0 0 0 0 0 0 0 0 0 0 0 0
0 0 0 0 0 0 0 0 0 0 0 0 0 0 0 0 0 0 0 0 0 0 0 0 0 0 0 0 0 0 0 0 0 0 0 0 0 0 0 0 0 0 0 0
0 0 0 0 0 0 0 0 0 0 0 0 0 0 0 0 0 0 0 0 0 0 0 0 0 0 0 0 0 0 0 0 0 0 0 0 0 0 0 0 0 0 0 0
0 0 0 0 0 0 0 0 0 0 0 0 0 0 0 0 0 0 0 0 0 0 0 0 0 0 0 0 0 0 0 0 0 0 0 0 0 0 0 0 0 0 0 0
0 0 0 0 0 0 0 0 0 0 0 0 0 0 0 0 0 0 0 0 0 0 0 0 0 0 0 0 0 0 0 0 0 0 0 0 0 0 0 0 0 0 0 0
0 0 0 0 0 0 0 0 0 0 0 0 0 0 0 0 0 0 0 0 0 0 0 0 0 0 0 0 0 0 0 0 0 0 0 0 0 0 0 0 0 0 0 0
-0 0 0 0 0 0 -0 -0 0 0 0 0 0 0 0 0 0 0 0 0 0 0 0 0 0 0 0 0 0 0 0 0 0 0 0 0 0 0 0 0 0 0 0 0
0 0 0 0 -0 -0 -0 -0 0 0 0 0 0 0 0 0 0 0 0 0 0 0 0 0 0 0 0 0 0 0 0 0 0 0 0 0 0 0 0 0 0 0 0 0
0 0 0 -0 -0 -0 -0 -0 -0 0 0 0 0 0 0 0 0 0 0 0 0 0 0 0 0 0 0 0 0 0 0 0 0 0 0 0 0 0 0 0 0 0 0 0
0 0 0 -0 -0 -0 -0 0 0 0 0 0 0 0 0 0 0 0 0 0 0 0 0 0 0 0 0 0 0 0 0 0 0 0 0 0 0 0 0 0 0 0 0 0
0 0 0 0 0 -0 0 0 0 0 0 0 0 0 0 -0 0 0 0 0 0 0 0 0 0 0 0 -0 0 0 0 0 0 0 0 0 0 0 0 0 0 0 0 0
0 0 0 0 0 -0 0 0 0 0 0 0 0 0 0 0 0 0 0 0 0 0 0 0 0 0 0 0 0 0 0 0 0 0 0 0 0 0 0 0 0 0 0 0
Wind_Speed
9 10 8 9 9 7 7 7 6 7 6 8 8 8 9 9 9 9 9 8 6 4 3 3 1 1 3 4 5 6 9 10 12 12 12 12 12 12 12 12 13 13 12 12
7 8 7 9 9 8 8 7 8 8 8 6 6 5 7 8 9 10 10 9 8 6 4 3 2 1 1 2 4 5 7 8 8 8 10 11 11 11 11 11 11 12 13 12
6 7 6 5 6 6 5 4 5 7 7 6 6 6 6 7 8 8 9 10 8 7 5 3 3 2 2 2 2 4 5 6 7 8 9 10 10 11 11 11 11 11 12 12
4 4 5 5 3 4 4 3 3 3 5 6 6 6 4 4 7 8 9 10 9 7 7 5 3 2 1 1 3 3 4 5 5 7 8 8 9 10 10 10 10 10 11 11
2 4 7 5 4 3 4 3 3 4 6 7 8 4 3 6 7 8 8 8 8 7 6 4 3 2 1 1 1 2 2 4 5 6 7 8 9 9 9 8 8 8 9 10
3 4 5 4 6 6 1 3 4 4 5 6 5 3 5 8 9 9 8 7 8 7 5 4 4 1 1 1 1 1 1 2 3 5 7 8 8 8 7 7 8 7 7 8
5 5 7 5 6 4 0 5 5 4 4 4 3 5 7 9 9 9 7 7 7 6 5 4 3 1 0 0 1 1 0 1 2 4 6 7 7 6 7 7 7 7 7 6
3 5 7 3 2 0 5 4 4 4 4 4 5 6 7 7 9 9 8 7 7 6 6 5 3 1 1 1 1 1 1 2 2 3 4 5 7 7 7 8 8 7 6 5
7 7 5 3 4 4 4 4 4 5 5 5 6 6 7 7 8 8 8 7 6 6 7 6 4 2 1 2 1 1 2 2 2 3 4 5 7 8 7 7 7 6 6 6
5 7 6 6 5 4 4 5 5 5 5 5 6 6 7 7 8 8 7 6 6 6 6 6 5 4 2 2 1 1 2 2 2 4 4 4 5 5 6 6 7 7 7 6
7 8 6 6 5 6 6 6 6 6 6 6 6 7 7 7 8 7 7 6 5 5 5 6 5 4 2 1 0 1 1 1 2 3 4 4 4 3 4 4 6 8 7 8
9 7 6 7 6 5 6 7 6 6 7 7 6 8 7 7 7 7 7 6 6 5 5 5 4 4 3 1 1 2 1 2 2 3 3 4 5 5 7 5 6 7 7 8
9 8 8 8 7 6 6 7 7 7 7 8 7 6 7 7 7 7 7 7 7 6 6 5 4 4 3 2 1 2 2 2 2 3 4 4 5 5 5 6 8 8 10 10
6 5 6 7 7 7 7 7 7 7 6 6 6 6 6 6 6 7 8 7 7 7 6 5 5 5 3 2 2 2 2 2 3 3 4 4 4 4 5 6 5 4 6 11
6 6 8 8 8 7 7 6 7 7 7 7 6 6 6 7 7 8 8 7 7 6 6 5 5 6 3 2 2 3 3 2 3 3 4 4 4 4 5 6 6 6 5 7
6 6 6 7 7 7 7 7 7 8 7 7 7 7 7 7 7 8 8 7 6 8 7 6 6 6 3 2 3 3 3 4 4 4 5 5 5 5 6 6 6 6 6 6
5 6 6 7 7 7 7 7 8 8 8 8 8 8 8 7 7 7 7 7 7 8 7 7 7 5 3 3 4 3 3 4 5 5 4 5 5 6 6 6 6 6 5 6
4 5 6 7 7 8 8 8 8 8 8 8 8 8 8 8 8 8 8 7 7 7 7 6 5 4 4 4 4 4 4 4 4 4 5 5 5 5 6 6 7 7 6 6
5 6 7 8 7 7 8 8 8 8 8 8 8 8 8 8 8 8 7 7 7 8 7 5 6 5 4 4 4 4 5 5 4 4 5 7 6 5 6 6 6 6 7 6
6 7 7 7 8 7 8 8 8 8 7 7 8 9 8 8 7 7 7 7 6 6 5 5 4 3 4 4 5 4 5 6 6 5 5 5 6 6 6 6 6 7 7 6
7 8 8 8 8 8 7 7 7 8 8 7 8 9 9 8 6 6 6 6 6 5 5 5 3 3 3 5 5 5 5 6 6 6 6 6 6 6 6 7 6 7 7 7
7 7 8 8 8 8 7 6 7 8 8 8 8 8 7 7 6 5 6 5 5 5 3 2 2 4 5 6 4 5 6 6 6 6 6 6 7 7 7 7 7 7 7 7
7 7 8 8 8 8 8 7 7 7 8 8 7 7 7 6 4 4 5 4 3 4 2 2 3 6 7 5 4 5 6 6 6 6 6 6 6 7 7 7 7 7 7 7
7 7 7 7 6 7 8 8 7 6 6 6 6 6 6 4 4 4 4 4 3 3 1 2 5 6 6 4 5 5 5 6 6 6 6 6 6 6 6 7 7 7 7 8
7 6 6 7 6 6 7 7 7 6 6 5 5 5 4 3 3 3 2 2 2 1 1 2 4 4 4 4 5 5 5 5 6 6 6 6 6 6 6 7 7 7 7 7
6 6 6 6 6 5 5 5 5 4 4 4 4 3 2 2 2 1 1 0 1 1 1 1 3 3 3 4 5 5 5 6 6 6 6 6 7 7 7 7 8 7 7 7
6 5 5 5 5 4 4 4 4 4 4 3 3 3 2 1 1 0 1 1 1 2 2 2 3 3 3 4 5 5 5 5 5 6 6 6 6 6 7 8 7 7 7 7
Wind_Direction
258 266 267 273 281 276 252 245 246 268 277 299 322 331 336 341 345 355 360 2 2 2 354 349 335 209 187 187 183 181 183 189 194 193 191 191 191 191 189 190 192 190 190 192
277 268 270 275 280 271 258 253 254 269 275 301 318 330 340 346 351 355 353 351 351 351 355 344 321 284 222 197 187 177 183 189 187 183 185 187 188 186 185 186 186 185 189 190
274 294 296 266 274 268 248 249 243 255 274 309 320 329 331 337 345 349 346 343 340 336 326 316 297 271 225 210 187 176 179 179 178 180 183 187 182 181 183 184 183 186 188 188
273 308 255 251 261 271 258 269 276 278 307 306 296 292 301 339 339 337 338 336 332 324 317 314 312 313 280 169 160 165 168 171 174 177 180 178 178 181 182 181 183 187 188 188
248 269 273 289 313 289 248 264 309 300 312 320 317 309 309 343 341 324 319 321 320 312 304 312 319 324 31 76 124 137 161 180 178 174 175 175 179 180 176 172 178 183 182 183
232 254 261 280 313 315 190 268 312 311 311 322 346 329 301 327 328 321 319 323 327 324 322 329 328 343 90 77 92 161 195 193 180 172 172 177 178 173 166 166 172 171 174 181
226 245 266 284 316 353 107 273 301 302 303 325 297 265 289 311 318 317 314 320 328 329 322 314 324 351 77 89 304 309 281 149 151 165 169 168 164 161 154 155 157 162 164 170
207 231 254 292 358 242 249 270 284 287 294 294 287 293 300 309 317 318 321 327 331 330 325 322 322 328 315 309 336 4 69 119 133 145 152 153 151 150 150 151 153 156 154 152
203 227 252 248 231 251 251 267 278 281 288 288 288 297 307 308 313 315 319 320 323 323 320 323 325 324 313 320 0 55 73 103 120 122 139 147 148 149 148 153 154 156 156 156
249 260 263 269 261 263 261 257 271 277 281 285 285 295 305 309 310 311 312 312 314 318 316 317 326 328 313 310 331 101 105 109 127 128 128 131 136 144 151 158 157 155 158 156
252 266 280 267 256 262 271 277 282 282 277 277 285 289 292 300 301 301 303 303 301 299 302 306 317 319 315 302 2 120 121 125 131 129 130 125 119 126 147 164 167 162 166 163
242 243 241 261 269 277 282 285 286 287 286 282 278 279 284 288 290 292 296 301 299 297 295 296 300 301 300 275 206 164 159 159 145 136 131 128 120 89 65 95 120 134 148 151
244 257 254 263 272 275 276 284 288 283 279 283 283 277 280 283 288 292 293 297 293 289 287 287 285 283 280 267 226 197 201 189 159 144 140 138 137 134 117 80 89 112 130 138
253 263 271 271 273 281 283 284 285 284 279 279 282 284 283 284 288 292 291 291 290 288 287 286 281 274 267 245 218 207 198 183 169 154 148 147 145 141 140 139 129 106 116 131
263 253 257 269 277 284 289 291 293 292 292 291 288 287 287 288 288 289 290 290 291 289 286 282 277 276 264 222 204 203 187 174 157 147 144 143 141 136 132 131 132 129 119 121
283 282 275 277 283 289 293 291 287 289 291 292 292 289 285 280 281 286 288 287 285 284 283 277 271 269 255 205 192 194 181 173 162 153 148 145 146 143 140 137 138 140 141 141
284 288 288 290 292 293 291 286 283 284 287 288 289 291 290 286 286 286 287 285 279 277 275 268 266 262 239 204 190 181 165 156 154 153 156 154 151 149 147 145 144 144 146 151
273 275 282 284 288 292 295 294 291 291 289 289 292 293 290 285 283 284 284 285 285 281 275 267 261 249 226 201 183 171 160 160 161 159 155 151 149 149 148 147 149 146 141 138
301 296 295 294 290 288 288 291 292 293 295 297 295 292 287 282 279 279 281 280 276 275 277 268 255 241 217 192 177 165 157 158 159 155 151 151 149 151 152 151 149 148 145 141
305 304 302 298 293 287 286 288 291 292 292 293 293 292 289 285 281 279 278 271 265 265 269 264 251 232 205 178 173 164 160 162 161 157 154 156 155 155 153 150 148 147 145 144
304 304 303 300 296 290 284 284 286 288 291 290 288 288 288 287 280 275 272 273 275 271 266 261 244 211 186 171 167 162 160 160 161 161 161 160 157 156 153 150 149 148 146 144
301 301 301 300 299 296 292 286 282 286 289 288 286 286 287 287 283 273 264 264 273 275 266 244 213 189 175 168 162 159 159 159 159 159 160 161 160 158 154 151 150 148 146 145
296 297 298 298 297 295 295 290 285 285 284 283 284 284 282 281 277 271 278 278 270 262 256 226 191 177 170 164 157 157 157 158 158 159 160 160 159 155 152 150 149 149 147 146
297 297 298 298 297 296 297 298 295 289 285 282 279 277 276 280 281 269 267 273 270 261 242 194 184 174 167 155 151 153 155 155 155 154 153 152 149 147 147 148 147 146 144 143
296 296 297 299 298 291 289 294 297 293 291 290 289 283 276 266 266 278 280 265 240 244 206 172 165 158 151 144 148 149 151 155 153 150 151 150 149 148 148 147 146 144 144 144
295 295 291 286 283 285 289 292 291 294 296 298 302 299 293 284 272 270 270 265 158 160 139 128 129 126 131 137 141 143 144 147 148 147 148 148 147 147 145 143 141 142 141 141
294 293 294 296 294 291 291 292 291 295 294 294 302 307 308 313 323 22 80 90 93 93 94 96 101 108 118 126 129 133 135 136 137 138 140 142 144 143 141 139 138 137 138 140